Flag for Israel Weather past 2 weeks in Beersheba, Israel

Now
75 °F

Passing clouds.


Feels Like: 77 °F
Forecast: 65 / 85 °F
Wind: 8 mph from North

Location: Ben Gurion International Airport

Current Time: Sep 30, 2014 at 11:22:35 PM

Latest Report: Sep 30, 2014 at 10:50 PM


Visibility: N/A

Pressure: 29.95 "Hg

Humidity: 65%

Dew point: 63 °F

Location of BeershebaLocation

Historic Weather in Beersheba — Graph

°F

Beersheba temperature yesterday

Maximum temperature yesterday: 82 °F (at 2:50 PM)
Minimum temperature yesterday: 70 °F (at 3:20 AM)
Average temperature yesterday: 75 °F

Past Weeks' High & Low Weather Summary

 TemperatureHumidityPressure
High100 °F (Sep 17, 1:20 PM)83% (Sep 16, 4:20 AM)30.01 "Hg (Sep 16, 4:20 AM)
Low68 °F (Sep 30, 3:20 AM)20% (Sep 17, 10:50 AM)29.68 "Hg (Sep 17, 3:50 PM)
Average79 °F62%29.91 "Hg
* Reported Sep 15 10:20 PM — Sep 30 10:20 PM, Beersheba, Weather by CustomWeather, © 2014

Note: Actual official high and low records may vary slightly from our data, if they occured in-between our weather recording intervals... More about our weather records

Advertising

Beersheba weather history for previous 24 hours

 ConditionsComfort  
Time TempWeatherWind HumidityBarometerVisibility
10:20 PM
Sep 30
75 °FPassing clouds.7 mph65%29.95 "HgN/A
9:50 PM75 °FPassing clouds.7 mph65%29.95 "HgN/A
9:20 PM77 °FPassing clouds.8 mph61%29.95 "HgN/A
8:50 PM77 °FPassing clouds.7 mph61%29.95 "HgN/A
8:20 PM77 °FPassing clouds.5 mph61%29.95 "HgN/A
7:50 PM77 °FPassing clouds.7 mph61%29.95 "HgN/A
7:20 PM77 °FPassing clouds.7 mph61%29.95 "HgN/A
6:50 PM79 °FPassing clouds.8 mph58%29.95 "HgN/A
6:20 PM79 °FPassing clouds.9 mph58%29.95 "HgN/A
5:50 PM81 °FPassing clouds.13 mph51%29.95 "HgN/A
5:20 PM81 °FPassing clouds.13 mph54%29.95 "HgN/A
4:50 PM82 °FPassing clouds.15 mph48%29.92 "HgN/A
4:20 PM82 °FPassing clouds.15 mph48%29.92 "HgN/A
3:50 PM82 °FPassing clouds.14 mph48%29.92 "HgN/A
3:20 PM82 °FScattered clouds.15 mph45%29.92 "HgN/A
2:50 PM82 °FScattered clouds.14 mph45%29.92 "HgN/A
2:20 PM82 °FScattered clouds.13 mph51%29.92 "HgN/A
1:50 PM82 °FScattered clouds.14 mph48%29.95 "HgN/A
1:20 PM82 °FPassing clouds.12 mph51%29.95 "HgN/A
12:50 PM82 °FPassing clouds.10 mph51%29.95 "HgN/A
12:20 PM82 °FPassing clouds.10 mph48%29.95 "HgN/A
11:50 AM82 °FScattered clouds.10 mph51%29.95 "HgN/A
11:20 AM81 °FScattered clouds.7 mph51%29.95 "HgN/A
10:50 AM81 °FPassing clouds.6 mph51%29.98 "HgN/A
10:20 AM81 °FPassing clouds.7 mph54%29.98 "HgN/A
9:50 AM81 °FPassing clouds.2 mph54%29.98 "HgN/A
9:20 AM79 °FPassing clouds.1 mph58%29.98 "HgN/A
8:50 AM75 °FPassing clouds.2 mph61%29.98 "HgN/A
8:20 AM72 °FPassing clouds.5 mph69%29.98 "HgN/A
7:50 AM70 °FPassing clouds.6 mph69%29.98 "HgN/A
7:20 AM68 °FPassing clouds.3 mph73%29.98 "HgN/A
6:50 AM68 °FPassing clouds.5 mph73%29.98 "HgN/A
6:20 AM68 °FPassing clouds.1 mph73%29.95 "HgN/A
5:50 AM68 °FClear.5 mph73%29.95 "Hg10 mi
5:20 AM68 °FClear.2 mph73%29.95 "Hg10 mi
4:50 AM68 °FClear.5 mph73%29.95 "Hg10 mi
4:20 AM68 °FClear.2 mph69%29.95 "Hg10 mi
3:50 AM68 °FClear.3 mph69%29.95 "Hg10 mi
3:20 AM68 °FClear.2 mph69%29.95 "Hg10 mi
2:50 AM70 °FClear.3 mph69%29.95 "Hg10 mi
2:20 AM70 °FClear.3 mph69%29.95 "Hg10 mi
1:50 AM70 °FClear.6 mph69%29.95 "Hg10 mi
1:20 AM70 °FClear.5 mph69%29.98 "Hg10 mi
12:50 AM72 °FClear.2 mph65%29.98 "Hg10 mi
12:20 AM72 °FClear.3 mph65%29.98 "Hg10 mi
11:50 PM
Sep 29
73 °FClear.2 mph61%29.98 "Hg10 mi
11:20 PM73 °FPassing clouds.5 mph61%29.98 "HgN/A
Weather by CustomWeather, © 2014

See weather overviewHow to use our weather pages